Theta_e
350 351 354 355 354 355 354 354 353 353 354 353 352 352 352 353 353 353 353 353 353 352 353 352 352 352 352 352 352 351 351 351 350 350 350 350 349 349 348 348 348 348 348 348 349 350 349 347 345 345 347 348 346 346 345 342 342 341 342 341 341 341 341 338 337 338 335 335 337 343 343 343 344 345 345 346 346 345 345 345 345 342 342 344 344
349 353 354 354 355 354 353 353 353 353 353 353 352 352 353 353 352 352 352 352 352 352 352 352 352 351 352 352 352 351 351 350 350 350 350 350 349 349 349 349 350 350 350 350 350 350 349 347 346 347 348 347 347 346 345 343 342 343 343 343 341 340 339 340 338 336 338 339 341 341 343 343 344 344 344 346 345 345 345 345 345 343 343 345 345
352 352 354 354 355 354 353 353 353 353 353 352 352 353 353 352 352 352 352 352 352 352 352 351 351 352 351 351 352 351 350 350 350 350 350 351 351 349 348 349 349 350 351 351 350 348 347 346 348 348 349 348 345 345 344 343 344 343 343 343 341 340 340 340 340 339 340 340 340 341 343 345 344 344 344 344 345 345 345 345 344 344 344 344 345
350 352 353 354 355 353 353 353 352 353 353 353 353 353 353 351 351 352 352 351 352 352 352 352 352 351 352 352 352 351 350 350 350 350 351 351 348 347 348 350 351 351 350 348 348 348 347 347 348 348 348 346 347 348 347 346 345 343 343 344 343 341 340 339 338 338 339 339 339 338 338 332 339 343 344 344 344 344 343 344 344 344 345 345 345
351 352 352 352 352 353 352 353 352 353 353 353 352 352 352 351 351 351 351 351 352 352 352 352 352 352 353 353 352 352 351 351 351 351 352 350 349 350 350 349 348 348 348 348 348 348 348 348 348 348 348 349 349 349 348 346 344 343 345 345 344 343 339 339 338 338 340 340 340 336 331 331 334 341 342 344 344 344 343 343 343 344 344 344 344
351 352 352 351 351 352 353 352 352 353 353 352 351 352 351 351 351 352 352 351 351 351 351 351 352 353 353 353 353 353 353 352 352 353 352 352 351 351 349 348 349 349 349 348 347 348 347 348 349 349 349 349 348 347 347 347 346 345 345 345 345 345 340 339 339 339 339 339 338 332 331 331 332 334 344 345 344 343 343 344 344 344 343 343 343
352 352 351 350 350 352 353 352 352 352 352 352 351 351 351 351 351 351 351 351 351 350 350 350 351 351 352 352 353 353 353 354 353 353 351 351 351 350 349 349 348 348 348 349 348 348 348 349 348 349 349 349 348 347 346 346 345 345 345 345 345 345 342 339 339 339 339 335 331 331 331 332 332 332 343 344 344 343 342 345 345 344 344 343 342
352 351 350 350 350 352 352 352 352 352 352 351 351 351 350 351 352 351 352 351 350 349 350 350 351 351 351 352 352 352 352 352 352 351 351 351 350 350 348 348 348 347 348 347 348 348 348 348 348 349 349 349 347 346 345 345 345 345 345 345 345 345 341 339 339 339 339 333 332 330 330 330 331 333 343 343 343 342 341 343 343 343 344 343 341
350 351 351 350 350 353 352 352 352 352 352 351 351 351 351 351 350 352 352 352 352 351 351 351 352 352 351 351 351 351 351 351 351 351 351 351 350 349 349 348 347 347 347 347 347 347 348 348 348 348 348 348 347 346 346 346 346 345 345 345 345 346 341 339 340 340 336 333 331 330 330 329 330 332 337 338 339 340 341 341 342 342 342 342 342
350 350 350 350 350 352 352 352 352 351 352 352 351 349 350 350 351 351 351 351 351 352 352 352 351 351 352 351 351 351 351 351 351 352 351 351 351 349 349 347 347 347 347 347 347 347 347 347 347 347 347 347 347 347 346 345 345 345 345 346 346 346 342 340 340 339 334 334 333 334 338 337 331 331 333 340 340 341 341 341 340 340 340 341 340
350 350 350 350 351 352 352 352 352 352 352 352 351 351 350 351 351 351 351 352 352 352 351 351 351 351 351 351 351 351 351 351 351 351 351 350 349 348 347 347 347 347 347 346 346 347 347 346 346 346 347 347 346 345 345 345 345 345 346 346 347 345 342 340 338 334 334 332 332 335 338 337 331 334 337 338 337 337 339 341 341 340 340 340 341
349 349 350 350 352 352 352 351 352 353 353 353 353 352 351 351 351 352 351 351 352 352 352 351 351 350 351 350 351 350 350 351 350 350 350 349 348 347 348 347 347 347 347 346 346 346 346 347 347 347 347 347 346 345 344 345 345 345 345 346 345 343 341 340 334 334 333 333 334 332 330 331 332 334 337 337 336 336 335 335 334 335 335 336 337
349 349 350 350 350 352 351 352 352 352 352 353 353 352 352 352 352 352 352 352 351 351 351 351 351 350 349 350 350 350 349 350 350 350 350 349 348 348 347 347 347 347 347 346 346 346 347 347 347 347 346 346 345 344 343 345 346 343 343 343 342 342 341 339 334 334 333 331 331 330 329 331 334 336 336 337 336 336 336 335 335 335 335 335 336
348 349 349 349 349 352 351 352 352 352 352 353 352 352 352 352 352 352 351 351 351 351 351 351 350 349 349 350 349 349 349 350 350 349 349 349 348 347 347 347 347 347 347 346 346 346 347 347 346 346 345 345 345 344 343 345 346 343 342 342 342 341 341 339 337 334 333 332 334 330 331 336 337 339 337 336 337 337 337 336 336 336 335 335 333
347 348 349 348 349 349 353 352 352 352 352 352 352 352 351 351 351 351 351 351 351 351 350 350 350 350 350 349 349 350 350 349 349 349 349 348 348 348 348 347 347 348 347 346 346 346 346 346 345 345 345 344 344 343 343 344 345 345 342 342 342 341 339 335 334 333 333 334 336 332 332 335 340 339 337 337 337 336 336 336 335 334 335 334 335
349 348 348 347 348 348 349 352 352 351 352 352 352 351 351 351 350 351 351 351 350 350 350 350 349 349 349 349 349 349 349 349 349 349 348 348 348 347 347 347 348 348 347 346 346 345 345 345 345 344 344 344 343 343 342 343 344 345 343 342 341 340 339 336 333 333 334 334 336 337 334 336 338 337 337 337 337 336 334 332 333 334 334 334 334
348 348 347 347 347 348 349 350 351 353 352 351 351 351 350 350 350 350 350 350 350 350 349 350 349 349 349 348 348 349 349 348 348 348 348 347 347 347 347 348 348 347 347 346 345 345 345 345 344 344 344 343 342 342 342 343 343 344 344 342 341 340 339 336 333 333 334 336 336 333 333 334 336 337 336 337 337 335 335 334 334 333 333 333 333
348 348 347 347 347 348 349 348 348 349 349 351 351 350 350 349 349 349 350 350 350 350 349 349 349 349 349 349 349 349 348 348 348 347 347 348 348 347 347 347 347 347 346 346 345 345 345 344 344 343 342 342 341 341 341 342 343 343 344 342 341 340 339 337 333 335 337 339 334 336 334 337 336 337 337 336 335 335 334 334 333 333 332 332 331
347 347 348 347 347 347 347 347 348 348 348 347 348 349 350 349 349 349 350 350 350 349 349 349 349 349 349 349 348 348 347 346 346 346 347 347 347 347 347 346 346 346 345 345 344 344 344 343 342 342 341 340 339 340 340 341 341 342 344 343 341 340 339 336 335 336 338 336 335 333 334 337 337 337 337 336 336 336 335 335 334 334 334 333 333
346 347 347 347 348 347 347 346 347 348 347 347 347 347 349 349 349 350 350 349 349 349 349 349 349 348 348 348 347 345 345 345 346 346 347 346 346 346 346 346 346 345 344 343 343 343 343 342 341 341 340 339 338 339 339 340 341 342 342 344 342 341 336 334 336 336 335 336 336 334 337 336 336 336 337 336 335 334 334 334 334 334 333 333 333
344 346 346 347 347 346 346 345 346 347 347 346 345 345 348 349 348 349 349 349 349 349 348 348 346 346 345 346 344 342 342 342 343 343 346 344 345 345 344 343 343 343 342 342 341 342 341 341 340 339 339 337 336 336 338 339 340 342 341 343 343 335 333 335 336 337 336 338 338 334 337 336 336 337 337 336 335 335 334 333 333 334 333 332 332
341 344 346 346 346 346 346 345 346 346 345 344 344 345 346 345 344 345 345 346 347 346 344 344 345 344 346 343 341 343 340 340 343 346 343 344 343 344 343 343 342 342 342 342 342 340 340 339 338 339 338 336 334 328 329 336 339 342 341 343 337 332 333 334 335 336 336 336 337 337 339 338 337 336 336 337 335 333 333 334 334 334 333 332 332
340 342 343 345 345 345 345 345 345 344 342 343 344 345 344 342 342 343 344 346 346 344 343 341 339 339 340 340 341 339 339 340 341 344 344 344 344 343 343 343 343 342 342 341 340 340 340 339 339 337 336 334 328 327 326 326 327 339 340 336 333 332 333 334 334 335 335 336 335 339 340 340 338 337 337 337 335 334 334 334 333 333 333 332 332
339 341 342 345 345 344 344 345 344 343 342 342 342 341 341 342 341 340 341 341 340 339 338 338 338 338 338 338 338 340 339 338 345 346 347 342 342 344 343 343 343 343 342 341 341 340 339 338 337 334 332 331 328 329 327 327 327 327 328 332 332 332 333 334 334 334 334 337 334 340 340 340 339 338 338 336 335 335 334 334 334 333 332 332 331
341 342 342 343 344 343 344 344 343 343 342 341 340 339 340 341 340 340 340 340 338 337 336 336 337 337 336 336 336 337 337 338 339 340 338 338 337 338 338 338 338 337 338 334 333 331 330 327 328 330 328 329 329 329 328 327 328 327 328 331 332 332 333 334 334 334 334 337 337 343 342 342 340 338 339 339 338 337 335 334 333 333 333 333 333
341 339 340 342 343 343 343 342 342 342 341 341 339 340 340 339 339 339 339 339 338 336 335 336 335 335 335 336 336 335 336 337 338 338 337 336 336 335 335 336 335 335 336 333 331 329 328 328 329 329 329 330 330 329 331 329 327 326 327 330 332 332 333 333 334 334 335 336 339 343 342 342 341 339 340 340 339 337 336 334 333 333 333 333 332
339 339 341 341 342 342 342 341 340 341 340 341 340 339 338 339 338 338 337 337 338 336 335 335 335 334 335 336 335 334 335 337 338 338 337 336 335 335 334 334 334 334 335 332 330 328 329 329 329 329 329 330 330 330 328 327 326 326 327 330 332 332 332 333 333 334 334 336 340 342 341 342 343 340 340 340 337 336 336 335 334 333 332 333 333
337 338 339 340 341 341 341 341 340 340 339 340 338 336 336 336 338 340 337 339 338 336 336 335 335 334 335 335 336 335 336 337 338 337 336 335 334 334 333 333 334 333 333 331 328 327 329 329 328 327 329 329 330 330 328 328 327 329 331 331 332 332 332 333 333 334 334 336 339 342 341 342 343 342 340 339 337 337 336 335 334 333 333 332 332
330 331 338 339 340 341 340 339 339 339 339 338 336 335 335 336 338 336 337 340 337 337 337 335 333 334 334 335 337 335 336 337 336 336 336 334 333 333 332 332 332 330 329 327 328 326 328 328 328 327 328 328 328 329 329 328 328 330 331 332 332 332 332 333 334 334 335 337 338 342 342 342 342 341 339 338 338 338 336 336 335 334 334 333 332
330 333 338 339 340 341 340 339 338 338 338 336 334 333 334 335 336 336 338 339 337 337 337 335 334 334 333 333 335 335 335 335 335 335 334 333 333 332 331 330 330 329 328 327 328 328 328 328 327 327 327 328 329 330 329 328 328 330 331 332 332 333 333 333 334 335 335 335 337 341 341 341 341 341 340 338 338 338 337 336 336 336 334 333 332
331 334 337 338 340 340 339 338 338 338 337 334 333 332 334 334 335 336 338 337 337 337 336 335 334 334 333 333 333 335 334 335 335 333 332 332 331 330 329 329 328 328 328 328 328 327 327 327 326 326 327 327 327 327 328 328 328 330 331 332 332 333 333 334 335 334 334 334 335 336 341 341 341 339 339 339 340 336 336 337 337 336 335 334 333
331 334 336 338 339 339 339 338 338 337 335 333 332 331 331 333 335 335 337 338 338 336 335 334 334 333 334 332 333 334 335 334 333 332 331 330 330 330 330 329 328 328 328 328 329 328 328 328 329 329 328 328 327 327 327 327 326 328 330 331 332 332 333 334 334 334 333 333 334 335 336 339 340 339 340 339 339 340 336 337 337 336 336 335 335
333 335 336 337 337 338 338 338 337 336 334 332 331 331 332 334 334 336 337 338 337 336 334 333 332 333 333 332 333 334 334 333 332 332 332 330 330 330 329 329 329 329 329 330 331 331 330 329 329 329 328 327 326 326 327 326 326 326 329 330 331 331 332 333 333 333 334 334 335 334 335 338 338 338 338 340 338 337 338 338 337 336 336 336 335
332 335 336 336 338 338 338 337 337 335 333 332 331 332 333 334 335 337 337 336 336 335 334 332 333 332 332 333 333 334 333 333 332 330 329 329 329 329 329 329 329 330 330 330 329 329 329 329 328 328 328 325 324 324 325 326 326 327 327 328 329 329 330 331 332 332 333 334 334 334 334 334 334 336 339 340 338 337 336 338 336 336 336 336 335
333 334 334 335 336 336 337 336 336 334 333 331 331 332 333 334 335 336 336 335 335 334 333 332 332 332 332 332 332 333 332 331 331 329 328 329 329 328 328 330 329 330 329 329 329 328 327 327 327 326 326 326 325 326 324 325 326 326 327 329 329 329 330 330 331 332 333 333 333 333 333 334 334 335 336 338 338 338 336 338 337 336 336 336 335
333 333 333 335 335 335 337 335 335 332 331 331 331 332 333 334 336 336 335 335 334 333 332 332 332 331 331 331 331 333 331 330 329 329 328 328 329 329 328 329 330 329 329 329 329 327 326 326 327 327 325 325 325 324 324 325 326 326 328 329 330 331 330 331 331 331 332 332 332 331 329 329 329 333 337 336 336 337 336 337 337 338 337 336 335
333 333 333 334 334 335 336 335 333 332 331 331 332 333 334 335 335 334 334 334 333 332 332 331 332 331 331 332 331 332 330 329 329 328 328 327 327 328 329 330 330 329 329 328 326 326 326 325 325 327 326 324 324 324 323 324 325 326 327 328 329 331 331 331 331 331 331 330 330 330 331 332 333 333 330 332 334 335 337 337 339 338 338 336 336
334 334 334 334 333 334 334 335 333 333 332 332 332 333 334 334 333 333 333 332 332 332 331 332 331 330 331 332 331 331 331 329 328 328 327 328 328 328 328 329 328 328 328 327 326 325 325 325 325 327 327 325 324 324 323 324 325 325 326 327 328 330 331 331 332 332 330 329 329 329 330 331 330 330 331 331 332 333 334 336 335 336 337 336 337
333 333 334 334 334 333 334 334 333 332 332 333 333 333 332 331 331 331 330 330 331 331 331 330 329 330 330 332 331 331 332 329 329 328 329 330 327 327 328 328 329 327 326 326 326 325 324 324 325 326 327 324 324 324 324 325 325 325 325 326 328 328 330 331 331 330 330 330 332 332 331 330 330 330 330 329 331 331 331 331 332 333 335 335 337
332 333 334 334 333 333 333 333 332 333 333 332 332 330 330 329 327 328 329 329 329 329 329 329 329 329 330 331 331 330 331 330 329 329 329 328 327 328 327 327 327 326 325 324 323 324 323 322 325 326 325 325 325 324 325 324 324 324 324 325 327 328 328 329 331 331 331 332 331 331 331 330 327 329 330 329 329 330 330 331 331 331 333 334 334
332 333 333 332 332 331 331 330 331 332 331 330 329 329 327 327 327 327 326 327 328 328 327 327 327 328 330 330 331 331 330 330 330 329 328 331 329 328 327 327 326 326 326 325 324 325 326 326 325 325 324 323 322 323 324 324 323 321 323 323 324 327 328 328 329 330 330 332 333 332 331 328 327 328 329 329 328 328 328 328 329 329 330 331 331
331 332 331 331 331 331 330 330 331 331 331 330 330 329 329 328 327 326 326 326 327 325 324 325 326 329 329 329 330 330 330 330 330 329 330 330 328 328 328 327 326 325 325 325 324 326 325 324 325 324 323 322 321 323 323 321 319 319 318 318 321 324 326 327 327 328 329 330 330 331 331 330 328 327 327 328 328 328 328 327 328 328 328 328 328
330 331 331 331 330 330 329 329 330 330 330 330 329 328 328 328 327 325 326 324 324 324 325 326 329 328 328 329 330 330 329 328 329 330 329 329 328 328 328 326 325 327 326 326 326 325 324 324 325 324 321 322 323 323 323 319 316 317 318 317 314 315 320 323 326 327 328 329 330 330 331 330 329 328 326 325 325 327 328 328 327 328 328 329 329
330 330 330 330 330 329 328 329 329 329 329 330 328 327 327 325 324 324 323 322 322 325 325 325 326 327 327 329 329 329 329 329 329 330 329 328 327 326 325 325 325 327 326 325 325 325 323 321 321 323 324 322 322 322 323 320 319 318 313 312 313 315 312 316 319 323 328 328 329 329 330 328 328 328 328 326 326 326 326 327 327 327 328 329 330
329 329 330 329 329 328 328 329 328 328 328 329 327 326 325 323 323 323 325 324 324 324 324 323 325 327 326 327 327 328 329 329 329 329 329 327 326 325 325 324 324 324 325 326 326 325 324 322 322 323 324 324 319 317 321 322 321 321 317 313 312 311 310 316 319 319 324 324 326 327 328 327 327 328 328 328 328 328 327 326 326 326 326 326 326
328 330 331 330 329 328 328 328 327 327 327 326 326 325 324 322 322 322 321 320 320 321 322 323 325 325 325 323 327 327 327 326 326 327 328 326 324 323 324 323 323 324 324 325 325 323 323 324 323 324 322 322 323 317 319 322 322 323 319 317 315 314 313 318 316 311 321 324 324 326 326 326 327 325 326 327 327 327 329 327 327 327 325 325 325
328 330 331 330 329 328 328 327 326 326 326 326 325 324 322 322 322 322 322 322 320 317 319 322 324 319 321 323 323 322 323 324 322 323 324 324 321 320 321 322 323 322 324 322 322 323 324 324 324 322 322 321 321 320 320 319 320 321 319 320 321 320 322 317 312 316 313 319 322 322 324 326 326 325 325 325 326 327 328 327 325 324 324 324 324
329 330 330 329 328 327 327 326 326 326 325 325 324 324 322 321 320 320 321 321 321 319 320 319 319 320 320 319 318 316 317 318 319 319 321 321 319 318 319 319 319 320 322 320 320 318 319 321 324 322 321 322 322 322 319 320 320 319 318 319 320 320 316 314 319 317 315 313 315 321 323 323 324 324 325 325 325 325 323 323 322 321 321 321 322
329 329 329 329 328 327 327 326 325 324 323 324 323 322 323 321 321 321 320 320 320 319 319 319 319 320 317 315 316 314 314 314 316 318 318 320 322 318 318 318 319 320 322 318 317 318 319 319 320 320 321 320 321 320 320 319 318 317 317 317 318 317 317 317 316 317 317 315 315 316 317 322 323 324 324 324 322 320 320 320 320 319 319 319 320
329 329 329 329 328 327 326 325 324 324 323 323 322 321 321 321 320 320 319 318 319 317 317 317 317 317 316 313 313 313 313 313 313 315 317 318 319 320 318 318 317 319 320 316 316 316 316 317 318 319 319 319 319 321 321 319 318 319 319 318 316 316 317 317 316 317 317 318 315 315 317 317 316 318 322 321 318 317 317 318 317 317 317 317 319
328 328 328 329 328 327 326 324 324 323 322 321 321 320 319 320 320 320 319 317 316 315 315 315 315 315 314 312 312 312 312 312 314 314 316 317 318 319 316 316 319 322 318 315 315 315 314 314 314 316 317 318 317 317 317 317 317 318 318 320 319 319 317 314 315 315 316 316 315 315 317 319 317 315 317 317 316 314 314 315 315 315 316 316 316
Wind_Speed
10 14 11 16 15 16 17 18 19 20 21 21 21 19 18 18 18 20 20 19 19 21 20 20 21 21 21 20 20 20 19 19 20 19 19 19 20 19 17 18 17 17 17 17 18 18 18 19 19 19 19 19 20 19 18 19 18 19 17 17 16 16 16 16 15 16 16 13 13 15 13 13 14 16 17 18 17 17 16 16 14 11 9 11 15
14 13 11 12 17 16 18 18 19 20 21 22 22 21 20 19 18 18 18 19 19 18 19 19 19 19 19 19 19 19 19 19 19 19 19 19 19 19 18 18 18 18 18 19 19 19 19 19 19 19 19 19 19 18 18 19 18 17 16 16 15 15 15 16 16 15 16 15 13 14 15 14 15 14 17 16 16 17 17 15 14 9 6 13 17
12 12 11 14 18 17 17 18 19 20 21 22 22 22 21 21 19 18 17 18 18 18 17 18 18 19 18 20 19 19 19 19 19 18 19 18 19 19 18 18 19 19 19 20 20 19 19 19 18 18 19 20 19 18 18 18 18 16 16 16 15 15 14 15 15 14 12 12 11 10 12 16 14 14 15 16 16 18 16 16 14 12 9 17 15
14 11 11 15 19 17 17 18 19 20 20 20 21 22 21 21 21 19 19 18 18 18 17 17 17 17 18 18 18 19 20 18 18 19 19 18 18 18 18 18 19 19 19 19 19 19 19 19 18 18 19 19 18 17 16 17 16 15 16 16 16 15 14 14 14 13 12 12 11 9 4 5 7 13 14 16 17 16 14 16 15 14 17 17 18
14 12 11 11 12 16 17 18 19 20 20 20 21 22 22 22 20 19 19 19 18 18 18 18 18 17 18 17 19 19 19 18 18 19 19 18 17 17 17 18 18 18 19 19 19 19 19 18 18 18 17 17 17 16 16 15 15 14 15 16 15 14 14 13 14 13 12 12 11 6 5 6 4 13 13 14 14 14 14 15 16 16 17 18 18
13 12 11 11 11 13 17 18 19 19 19 20 21 21 21 21 21 20 19 18 18 18 18 18 18 17 17 18 18 18 19 19 18 17 17 16 16 16 17 18 17 18 19 19 19 19 19 18 17 17 17 17 16 15 15 14 11 10 10 9 12 12 13 12 12 12 12 11 9 5 6 6 6 6 15 14 14 14 14 15 15 16 16 17 17
14 11 11 11 10 12 17 18 19 19 19 20 21 20 20 20 19 19 19 19 18 19 18 18 17 17 17 18 18 18 19 19 19 18 17 15 15 15 17 17 18 17 18 18 18 18 18 17 17 16 16 16 15 14 14 13 11 10 9 8 10 12 13 12 12 11 11 6 5 5 5 6 6 3 13 13 13 13 14 14 15 15 16 15 15
11 10 10 10 9 15 18 18 19 19 19 19 21 21 21 19 19 19 18 18 17 17 17 17 16 16 16 15 16 18 19 19 18 17 15 14 15 15 15 16 16 17 17 17 17 17 17 17 16 16 16 15 14 14 12 11 9 8 7 7 9 12 13 13 11 11 10 5 5 5 4 5 3 3 13 13 12 13 12 13 13 15 14 15 13
11 10 10 10 10 19 18 17 18 19 19 19 19 19 19 18 18 18 18 17 17 16 16 16 16 16 15 15 17 17 18 18 17 15 12 13 14 14 14 14 15 16 16 16 16 16 16 16 16 15 15 15 13 13 10 8 7 6 6 7 8 11 13 13 12 10 5 4 5 5 6 5 5 4 8 10 11 11 12 11 11 14 14 14 13
11 10 10 8 9 18 18 17 17 19 19 19 19 20 19 18 18 18 18 17 16 15 15 15 16 16 14 15 16 16 16 15 14 14 13 12 14 15 14 15 15 15 16 15 16 16 15 16 16 15 15 14 13 11 9 8 7 7 7 8 10 12 14 13 12 8 5 5 6 5 4 5 5 5 10 13 13 13 12 12 10 10 10 13 14
12 10 9 9 12 16 16 17 18 19 19 19 19 18 19 19 19 19 18 16 16 15 14 14 15 16 15 16 17 16 17 16 15 15 14 15 17 16 15 14 15 15 15 15 15 16 16 16 15 15 15 13 11 10 9 8 8 8 9 10 14 15 14 13 10 5 5 5 6 5 6 7 4 4 12 13 13 13 13 14 13 12 13 13 14
11 10 9 9 15 17 17 17 18 18 19 19 19 18 18 17 17 17 16 16 17 16 14 12 12 13 15 17 17 16 17 18 16 15 14 14 15 15 14 14 14 15 15 15 16 16 16 16 16 15 14 13 11 10 9 9 9 10 12 13 14 14 14 13 7 5 5 6 5 5 5 6 6 8 13 13 12 12 11 11 10 11 11 11 12
11 10 9 9 11 16 17 17 18 19 19 19 18 17 17 17 17 16 15 15 15 16 15 12 11 13 17 16 17 17 17 17 16 15 14 14 14 14 14 14 14 14 15 15 16 16 16 15 15 15 13 12 11 10 9 9 10 12 13 12 13 14 14 12 6 6 5 5 5 5 5 4 5 10 12 13 11 11 12 12 12 12 13 13 12
11 10 10 10 9 17 17 17 17 18 18 18 16 16 17 17 17 16 14 14 14 14 12 12 13 15 15 16 16 16 16 16 15 15 14 13 13 13 13 13 13 14 14 15 15 15 15 15 14 13 13 12 11 10 10 9 10 11 12 12 12 13 14 10 7 6 5 5 5 5 5 4 4 10 12 11 12 13 12 12 12 12 12 13 13
13 11 10 10 10 11 18 17 17 17 17 16 16 16 16 16 16 15 14 14 14 13 13 12 13 14 15 15 15 14 15 14 14 15 14 13 13 13 13 12 12 13 12 13 13 13 13 13 13 12 11 11 11 10 10 9 9 9 11 12 13 13 12 6 5 5 5 4 4 5 5 5 8 9 12 12 12 12 12 12 11 11 12 13 13
11 12 10 8 9 10 10 16 17 17 16 16 15 15 15 16 16 15 14 14 13 13 12 13 14 13 14 14 13 13 14 13 13 13 14 13 13 13 12 11 12 13 12 11 11 11 11 11 11 11 11 11 11 10 10 9 8 7 10 10 12 12 12 7 5 5 4 4 4 4 4 4 11 10 11 12 12 11 11 10 12 12 11 11 11
11 12 10 9 10 9 9 10 13 18 15 14 14 15 15 16 16 15 14 13 13 13 13 13 13 13 13 13 13 13 14 14 13 13 15 13 13 11 11 13 12 11 11 10 10 10 10 11 11 11 12 11 11 10 9 9 7 6 8 10 11 13 12 8 5 4 4 4 3 3 3 4 10 10 12 12 11 11 11 11 11 11 10 11 11
11 11 10 10 8 8 8 9 11 11 9 12 14 15 16 15 15 15 15 14 13 13 13 12 13 13 12 13 13 14 14 14 13 13 13 12 11 11 12 12 12 10 10 10 10 10 10 10 11 12 12 11 10 9 8 7 7 5 6 9 11 13 12 8 5 4 4 4 4 3 4 7 11 11 12 12 11 11 11 11 11 11 10 9 10
10 10 10 10 9 8 8 8 8 8 9 7 7 12 16 15 15 15 14 14 13 13 14 13 14 14 13 13 13 14 14 15 14 13 12 11 12 12 12 12 11 10 9 9 10 9 10 11 12 12 11 10 9 8 7 6 5 5 5 9 11 13 13 7 5 4 3 3 3 4 3 9 9 11 12 12 12 12 11 11 11 10 11 11 11
8 9 9 8 9 9 8 8 8 8 7 7 8 9 14 16 15 15 16 14 13 13 13 14 14 14 14 13 13 11 11 10 15 11 13 11 10 8 10 10 11 10 9 8 8 9 10 10 11 11 10 9 9 7 6 5 5 5 5 8 11 13 7 5 6 5 4 3 3 3 6 9 9 10 11 11 11 11 11 10 11 11 11 10 10
7 8 9 8 9 10 10 8 8 8 8 8 7 8 11 16 14 16 17 16 12 13 14 15 14 13 13 13 10 7 6 6 7 6 11 7 9 10 10 10 10 10 9 7 7 9 9 11 10 10 10 9 8 7 6 3 3 5 6 7 11 6 5 5 5 4 4 3 3 2 8 8 8 9 11 11 11 11 10 10 10 10 10 9 10
10 9 9 9 9 9 10 9 8 9 8 6 5 6 8 10 7 8 8 10 11 11 10 8 8 7 12 8 6 6 6 6 6 8 5 7 8 10 10 10 10 9 9 8 8 8 9 9 9 9 9 8 6 5 4 4 2 4 6 9 6 5 5 5 5 4 4 3 3 3 9 9 8 9 10 10 10 10 9 10 10 10 10 9 10
10 8 8 9 8 8 8 9 8 8 8 6 5 7 8 6 6 6 6 8 8 7 7 8 6 7 6 6 5 4 5 5 5 7 6 10 9 11 11 11 11 11 10 9 7 6 7 8 8 8 8 7 5 4 4 3 2 4 6 6 6 5 5 5 4 4 4 4 3 5 9 8 9 8 9 9 9 9 9 9 9 10 10 9 9
10 8 8 6 8 8 9 8 9 9 8 6 6 6 6 7 6 5 5 6 7 7 7 6 6 7 6 6 5 4 5 4 9 13 10 6 7 9 12 12 12 12 10 5 6 6 7 7 8 7 5 3 4 3 4 3 3 3 4 5 6 6 6 5 5 4 4 4 2 6 7 7 8 9 9 8 8 8 8 8 9 9 9 9 9
9 7 6 8 8 8 8 8 9 9 7 6 8 6 7 6 6 6 6 6 6 6 5 5 6 7 7 6 5 5 5 5 5 5 5 5 5 5 5 5 5 5 7 4 2 3 3 4 4 4 4 4 4 4 4 3 3 4 4 5 5 5 5 5 4 4 4 3 2 4 6 6 7 7 8 8 9 8 8 8 8 8 9 9 9
7 8 8 7 8 7 7 8 8 9 7 7 8 8 9 7 6 6 6 6 6 5 4 5 5 6 6 6 6 6 5 5 5 5 5 5 5 4 4 4 5 4 3 3 2 2 2 3 3 4 3 3 4 3 3 3 4 4 4 5 6 5 5 5 4 4 3 3 2 6 6 7 7 7 8 9 8 7 8 8 8 8 8 8 8
6 6 7 6 8 8 6 7 8 8 8 7 7 6 6 6 6 7 7 6 5 6 4 4 4 5 5 6 6 5 5 5 5 4 5 4 5 4 4 4 4 4 2 2 3 2 2 2 3 3 3 4 4 3 3 3 3 5 5 5 5 5 5 5 4 4 3 4 3 8 6 5 4 7 7 8 8 8 8 8 8 8 8 8 8
6 7 7 6 7 9 7 8 7 8 8 8 8 7 6 6 7 8 8 7 7 5 4 4 4 4 5 5 5 5 6 6 6 5 4 4 5 5 4 3 3 3 2 2 2 2 2 2 2 3 3 3 3 2 2 3 4 4 6 5 5 5 4 4 4 4 4 4 2 5 3 2 2 8 7 7 8 9 8 8 7 7 7 8 8
8 6 4 8 8 8 8 8 7 8 7 7 8 7 7 6 6 7 8 10 5 6 5 5 4 4 4 4 5 6 5 5 6 6 4 5 4 4 4 3 3 2 3 2 2 2 2 2 2 3 2 2 3 3 2 3 4 4 5 5 5 5 5 5 5 5 4 3 3 4 4 3 4 8 8 7 8 8 9 8 7 7 7 8 8
1 6 6 6 7 8 9 9 9 7 7 7 7 8 7 6 7 7 7 8 6 7 6 4 4 5 4 4 4 5 5 5 6 5 5 5 4 4 4 4 3 2 3 2 1 2 2 2 2 3 2 2 2 2 2 3 5 4 4 5 4 5 5 5 5 5 4 4 3 3 5 4 5 6 6 6 8 9 8 8 7 7 8 8 8
4 6 8 8 8 9 9 9 7 8 7 7 7 8 7 7 7 6 6 7 7 7 5 4 4 4 4 5 4 5 5 5 6 5 5 4 4 4 4 4 3 2 2 2 1 2 3 2 3 2 2 1 2 4 5 5 4 4 4 4 4 4 4 4 4 4 4 4 3 3 2 5 5 7 5 5 6 6 7 8 8 8 8 8 8
9 9 9 10 10 13 11 10 9 8 8 8 8 8 8 7 7 5 6 7 6 6 6 5 6 5 5 4 5 5 5 5 6 5 5 5 4 4 4 3 3 2 2 3 3 3 3 3 3 3 2 1 2 4 5 5 5 4 3 3 3 4 4 3 4 4 4 4 3 3 3 3 5 4 6 7 4 1 6 7 7 8 9 8 9
12 15 17 17 14 14 13 11 10 10 9 9 8 7 6 8 7 5 7 7 6 6 5 5 5 6 5 4 5 5 5 6 5 6 6 5 5 5 4 3 3 2 2 4 5 4 3 3 3 3 3 3 4 5 5 6 6 5 5 6 5 5 4 4 4 4 3 3 3 3 3 3 4 4 7 7 5 1 4 7 6 8 7 8 9
20 14 9 8 6 7 8 7 9 9 9 7 7 7 8 8 7 6 7 6 6 6 5 5 5 5 4 4 4 4 5 4 6 5 5 5 5 4 4 3 3 3 3 2 4 3 4 4 3 3 3 4 4 5 6 6 5 6 6 5 5 4 4 5 5 4 3 3 2 3 2 3 4 4 4 7 5 4 5 7 4 5 7 7 8
5 7 8 7 6 5 7 6 9 8 7 7 8 8 8 8 8 6 6 6 6 5 4 4 4 4 4 4 4 4 4 4 4 5 5 5 4 4 4 4 4 4 3 2 3 3 4 4 3 3 3 3 4 5 6 6 7 7 6 6 6 5 5 5 5 4 3 2 2 2 3 3 3 3 4 4 4 3 5 6 7 6 5 6 8
5 7 7 8 7 6 7 7 8 7 5 5 6 7 8 7 7 8 6 6 6 5 5 5 4 4 4 4 4 4 4 4 4 5 5 4 5 4 4 4 5 3 2 2 2 3 3 4 3 3 5 3 5 5 6 7 7 7 6 6 5 5 5 4 4 4 3 2 2 3 3 3 4 4 3 5 4 4 4 5 7 7 5 3 5
5 7 9 8 7 8 9 9 8 7 6 5 6 7 7 7 7 7 7 7 6 5 5 5 5 4 4 4 4 4 4 4 5 5 5 5 5 4 3 4 4 3 3 2 2 2 3 4 2 2 2 4 5 7 6 7 7 7 6 6 6 5 5 4 4 3 3 3 2 2 3 5 5 3 3 3 4 3 4 5 6 6 4 4 4
6 7 8 7 7 7 7 9 7 7 6 6 6 7 6 7 7 7 7 6 6 5 5 5 5 5 4 5 4 4 4 4 5 5 5 5 4 5 4 4 3 3 3 2 2 1 3 4 4 2 2 4 5 7 7 7 6 7 7 6 5 5 4 4 4 4 3 3 2 3 3 4 3 2 4 4 4 4 4 6 8 9 7 3 4
6 8 8 7 8 7 7 9 8 7 6 6 7 7 7 7 7 7 7 6 6 5 5 5 5 4 4 5 5 4 4 5 5 5 5 5 4 4 4 4 4 3 3 3 3 2 3 3 5 4 5 5 6 6 7 7 7 7 6 6 5 5 4 5 4 4 3 3 3 4 4 4 4 5 5 5 4 4 4 3 4 4 5 10 10
6 7 9 9 9 8 7 7 7 7 7 6 6 7 7 8 8 7 7 6 6 5 4 5 4 4 4 5 5 5 4 5 5 5 5 5 5 4 4 3 4 5 4 4 3 3 4 5 5 6 7 7 6 6 7 8 8 9 9 8 6 6 5 4 5 5 4 4 4 4 4 3 5 5 5 4 4 4 4 5 5 4 3 7 10
7 7 7 8 9 9 8 8 7 7 7 8 7 8 7 7 6 6 6 5 6 6 4 4 4 4 5 5 5 5 5 5 5 5 5 5 4 4 4 3 4 4 4 4 4 4 4 5 4 4 6 6 4 4 5 7 8 7 7 8 8 7 7 7 7 6 6 5 4 4 3 4 3 5 5 4 5 5 5 5 5 4 4 4 7
7 7 8 8 8 9 10 8 6 7 7 7 6 6 5 5 5 5 5 4 7 6 4 4 4 4 4 4 4 5 5 5 5 4 5 5 5 4 5 4 4 4 3 2 3 4 5 5 5 4 2 4 4 5 6 5 3 5 6 5 6 5 6 6 7 6 5 4 4 4 4 4 5 4 5 5 6 5 5 5 5 5 4 4 5
6 7 8 8 8 8 8 7 6 7 6 7 7 6 5 5 5 4 6 4 3 3 4 4 4 5 4 5 5 5 5 5 5 5 5 5 5 5 5 4 4 4 4 3 3 3 4 6 6 6 3 2 3 4 3 0 5 4 4 5 2 3 4 5 5 6 6 5 4 4 4 5 5 3 5 5 5 6 5 5 6 5 5 5 4
6 6 8 9 7 7 8 7 7 7 6 7 7 7 7 7 6 6 5 4 5 5 5 5 5 5 5 4 4 4 4 5 4 4 4 4 5 5 4 4 4 4 5 5 4 4 3 3 4 4 6 5 3 3 3 2 4 8 3 2 3 3 4 3 4 4 5 6 5 6 5 6 5 4 5 7 6 5 5 4 6 6 7 6 4
6 7 8 7 5 8 8 8 7 7 7 7 8 8 8 8 7 6 7 7 6 5 6 4 4 4 4 4 4 4 4 4 4 4 4 5 4 4 5 5 5 4 4 5 5 5 5 4 5 6 6 6 4 2 1 2 5 1 6 5 4 2 2 4 4 5 5 5 6 6 6 6 6 5 5 6 6 3 6 5 5 7 6 4 2
7 6 6 6 6 7 8 7 6 7 7 8 8 7 7 9 8 8 7 5 6 6 6 7 5 5 5 3 4 3 4 3 4 4 4 4 5 4 4 5 4 3 4 4 4 3 4 5 6 6 6 5 6 5 4 1 3 2 2 1 3 3 6 5 2 3 4 5 5 6 6 6 5 7 6 6 6 6 5 5 6 7 7 4 3
6 6 6 5 6 7 7 7 7 7 7 8 7 7 7 6 7 7 7 8 8 2 3 4 5 4 5 5 4 3 3 5 4 4 4 4 4 4 4 4 4 4 3 4 5 6 5 6 4 5 6 5 4 5 6 4 3 1 0 1 2 3 8 7 3 5 5 2 4 5 6 6 6 6 7 6 5 5 5 5 6 5 5 4 3
5 7 6 6 7 8 8 7 6 7 6 7 6 7 8 6 6 5 6 7 7 7 6 5 4 5 6 5 4 3 3 3 5 4 5 5 4 4 4 4 4 4 4 5 6 4 3 2 4 4 5 5 5 5 5 5 7 3 2 3 5 6 4 4 6 5 6 6 5 5 6 6 6 6 6 6 6 6 6 5 5 5 5 5 4
6 6 5 5 6 6 6 6 7 6 6 6 6 5 6 7 6 6 6 3 5 6 5 5 6 5 6 4 5 4 4 3 3 5 4 5 5 5 5 5 5 4 4 5 4 5 6 6 5 5 6 5 5 4 5 5 5 4 4 4 6 5 5 4 5 4 5 7 4 4 4 5 7 6 6 6 6 5 5 5 5 5 5 5 5
4 4 3 4 5 6 6 6 7 6 6 6 6 6 5 6 7 6 8 6 6 5 5 6 5 5 6 4 4 5 4 4 4 3 4 4 5 4 4 4 4 4 3 5 4 4 4 4 4 4 4 5 4 5 6 5 4 5 4 6 5 4 5 4 4 6 6 4 7 5 6 7 5 4 5 5 6 5 5 5 5 5 5 5 3
5 5 4 5 6 6 6 6 6 5 6 7 7 7 6 6 7 7 8 8 7 7 7 5 4 4 6 4 4 4 4 4 4 3 4 5 4 4 5 4 3 3 4 4 4 4 3 3 3 3 3 5 5 5 4 4 4 5 5 6 7 8 7 5 7 4 6 6 7 8 7 5 6 6 5 5 5 5 5 5 4 4 4 4 2
Wind_Direction
146 136 135 134 135 134 132 130 130 126 123 122 122 121 118 114 114 116 117 115 115 118 117 118 120 122 123 123 123 124 123 123 123 124 123 121 122 121 119 119 121 119 117 116 112 109 108 108 111 111 107 102 98 101 100 97 95 89 89 83 81 85 86 88 84 86 95 102 97 85 85 78 70 69 69 71 72 77 73 66 73 72 56 71 79
144 135 135 136 135 135 134 133 132 128 125 124 124 124 123 122 120 118 117 116 117 115 116 119 118 120 120 122 123 122 122 122 124 123 122 122 121 120 123 124 124 122 121 118 114 110 111 112 111 107 104 102 102 102 101 100 98 95 91 89 85 83 84 86 94 97 100 98 94 96 90 79 80 81 78 73 77 79 79 76 71 80 85 76 75
125 131 133 137 137 137 136 135 135 130 127 127 126 125 124 124 123 121 119 118 117 116 116 118 120 122 123 124 123 124 124 126 124 122 122 119 118 122 122 121 122 121 118 116 115 115 113 112 113 111 109 106 108 107 104 99 100 99 101 99 91 86 85 85 87 92 79 56 46 36 63 87 85 83 83 84 77 73 72 79 72 75 84 77 72
131 130 133 139 136 136 135 137 137 132 129 127 126 126 125 125 124 123 121 120 119 118 119 121 121 123 123 122 123 126 127 126 123 123 121 118 120 122 120 123 122 121 118 116 115 114 118 119 115 112 109 113 113 108 105 105 104 103 100 100 93 89 88 89 89 88 75 65 57 47 41 26 67 78 83 83 80 82 87 85 84 75 75 72 71
130 133 134 133 135 137 136 139 138 131 129 127 126 125 124 125 124 123 123 122 120 120 122 123 123 124 124 125 127 128 128 126 126 126 123 122 123 121 118 119 119 119 119 119 118 121 121 117 115 114 115 114 111 109 109 108 109 112 108 92 85 88 93 92 92 86 71 62 50 43 30 38 32 98 88 83 77 75 77 81 77 72 69 68 68
134 134 134 133 133 136 136 140 137 131 128 126 125 123 124 126 123 121 121 121 122 124 126 126 127 128 130 131 132 135 134 131 129 127 121 121 121 121 121 121 122 121 119 119 120 122 119 116 115 112 110 109 109 110 108 106 108 110 110 94 81 89 98 97 93 82 72 63 50 35 37 40 61 45 86 82 78 68 69 70 71 70 68 67 68
131 132 133 132 132 137 140 141 136 131 129 126 124 123 125 124 123 122 122 122 124 127 126 127 127 128 131 133 138 140 136 133 127 121 120 119 118 122 124 123 122 121 120 119 120 121 120 117 114 112 112 112 111 108 108 111 115 116 111 103 95 95 104 102 95 81 70 62 68 43 36 45 34 43 83 80 79 78 72 70 68 67 68 67 67
128 130 131 130 132 141 142 141 136 132 129 126 125 125 127 126 124 124 120 123 124 127 127 127 127 127 128 129 133 133 127 122 116 118 119 121 123 124 124 124 122 121 119 119 122 123 120 118 115 114 112 110 111 109 109 108 108 104 99 97 100 104 111 110 97 82 69 61 53 56 52 58 54 51 81 77 78 79 75 71 74 70 70 70 67
127 126 126 128 137 140 143 140 135 132 129 126 125 127 129 128 124 122 124 125 127 129 131 131 130 130 128 125 124 123 121 115 112 114 118 122 124 121 117 116 118 118 117 119 122 123 120 118 116 113 112 110 108 106 101 99 97 95 104 113 116 117 117 115 105 89 77 73 71 63 61 51 44 48 95 82 80 81 74 68 64 70 70 71 70
124 124 127 131 137 143 143 137 134 133 129 127 127 130 132 130 126 126 128 130 130 132 133 132 133 134 131 131 125 117 114 110 104 101 99 109 111 110 111 115 116 117 116 118 123 122 118 116 115 114 110 106 99 93 92 88 90 103 115 130 132 127 121 114 103 89 79 67 63 64 72 72 53 61 83 90 89 88 87 86 83 78 73 71 71
128 131 132 133 141 144 141 136 133 132 131 129 130 133 135 134 130 128 129 130 132 132 131 133 136 139 142 133 127 123 118 113 109 105 104 107 111 115 121 120 120 120 116 115 121 120 117 115 110 104 100 95 90 88 86 83 94 106 112 126 131 127 120 111 99 90 81 74 64 46 55 60 43 81 92 88 87 86 83 83 79 77 79 74 70
130 133 136 140 144 143 139 136 133 133 132 132 134 138 138 133 130 130 131 133 134 132 131 130 135 138 131 130 125 125 128 120 115 111 106 109 117 123 125 123 124 122 117 118 123 119 117 111 105 102 95 92 89 84 77 80 92 107 111 117 122 119 117 111 103 95 91 87 87 77 60 60 54 99 99 94 89 89 82 70 71 69 70 74 70
132 134 138 142 140 143 138 137 136 135 136 138 141 143 140 136 134 134 136 135 134 133 132 131 131 133 134 130 128 129 128 118 116 113 111 112 119 126 128 126 123 120 115 119 123 120 116 110 102 96 93 90 87 81 73 71 84 109 115 115 118 118 117 112 100 99 94 91 80 73 69 66 102 93 92 91 96 92 85 86 85 85 79 78 75
137 139 142 139 143 141 138 139 138 138 140 142 146 146 139 136 136 135 134 133 133 132 131 130 128 135 135 127 127 128 122 117 118 120 119 117 118 124 129 126 124 120 116 118 120 117 111 103 99 94 91 88 84 79 71 68 80 106 119 118 117 119 119 112 107 101 104 97 88 83 84 86 91 100 98 97 89 91 95 86 74 74 76 75 73
139 142 137 136 139 141 142 141 139 138 142 146 147 143 135 133 133 132 133 134 132 131 132 128 130 134 129 126 125 124 122 123 124 124 123 124 122 120 123 127 126 119 113 113 114 110 103 97 95 91 87 82 79 76 71 70 84 98 121 124 124 123 119 107 109 106 106 101 87 88 82 75 87 98 98 101 100 95 91 94 92 85 81 80 80
133 132 130 133 134 140 141 143 140 142 145 146 144 136 132 133 134 132 131 131 129 131 131 130 131 129 127 127 127 127 127 125 127 126 125 125 125 127 129 130 127 117 114 111 107 104 101 97 93 90 83 79 77 75 74 71 73 95 128 130 128 125 121 113 109 110 102 99 96 89 99 107 104 103 103 96 94 90 90 92 91 84 81 80 80
134 129 128 127 133 136 142 141 145 145 144 142 136 132 132 133 133 132 131 129 130 132 133 129 129 128 129 130 129 127 126 126 124 127 126 127 128 128 135 133 124 120 116 109 104 101 98 95 90 85 79 77 75 73 72 74 76 83 133 136 130 127 124 115 110 113 117 118 108 108 117 108 117 116 105 100 103 108 101 96 89 86 81 78 73
134 130 128 131 134 139 138 143 144 141 141 137 132 132 134 133 133 133 132 131 130 133 131 128 132 130 128 128 131 129 126 124 124 125 122 119 120 125 124 131 124 117 112 104 98 92 88 84 78 74 74 73 72 70 70 75 79 83 135 143 134 130 125 114 109 116 128 122 114 115 110 121 122 118 112 113 112 103 100 96 97 99 97 91 88
124 125 127 134 138 137 137 137 135 138 135 128 131 137 135 134 136 135 134 132 132 133 135 138 138 135 131 131 133 129 130 127 126 121 119 119 124 120 122 121 117 114 107 101 94 87 80 74 72 71 70 70 70 69 71 80 89 90 124 152 139 135 128 119 120 125 105 101 115 116 169 134 132 124 122 123 123 113 104 101 94 90 91 96 96
119 126 136 143 143 140 137 135 136 140 133 130 134 137 139 138 137 137 134 133 133 136 139 140 138 136 130 125 123 122 121 123 120 115 110 104 105 108 116 114 113 110 100 94 94 87 77 73 71 70 69 67 67 69 74 85 105 114 105 146 149 135 119 124 125 112 110 126 123 136 139 130 132 132 124 119 113 112 107 107 106 103 101 95 96
131 144 150 152 148 144 141 138 139 137 134 135 136 135 144 140 139 136 136 137 132 140 143 134 129 124 119 114 102 97 96 95 98 104 103 104 107 111 111 111 111 113 109 103 89 77 77 73 69 70 70 68 70 68 72 88 113 128 128 141 148 105 120 116 115 115 120 131 140 207 145 142 139 126 120 122 123 118 117 112 107 104 100 96 95
152 154 159 154 149 147 144 137 139 139 136 126 121 125 132 134 127 127 130 139 143 136 127 116 118 101 104 102 97 101 102 105 107 110 106 111 111 106 107 106 105 101 100 98 80 73 76 76 72 73 74 72 66 63 49 40 53 128 123 134 108 114 110 115 113 123 130 141 152 204 150 146 136 128 124 121 117 119 122 113 106 101 99 99 96
158 157 157 154 147 143 141 140 138 136 126 114 118 123 119 118 114 117 124 129 117 100 100 102 91 98 93 96 99 103 106 107 109 115 111 115 112 113 113 114 111 106 99 92 94 89 81 82 80 77 76 75 68 63 64 65 15 67 106 117 117 119 121 116 121 133 149 165 144 181 151 144 133 129 127 122 120 121 114 111 108 104 103 104 99
153 155 151 144 146 146 140 139 138 138 128 121 108 111 129 119 113 105 103 98 90 89 94 103 102 105 107 105 108 108 102 109 127 121 110 99 108 111 115 114 109 102 90 82 76 74 68 64 67 70 70 77 80 64 74 61 62 65 96 119 125 133 131 137 145 149 152 166 156 182 154 140 137 135 129 122 120 112 103 104 107 105 101 100 100
151 139 140 148 144 138 139 137 135 137 129 120 120 118 121 122 116 109 107 103 100 100 103 103 114 115 116 114 110 105 101 93 88 87 94 98 89 78 81 79 80 80 92 88 58 39 46 54 51 62 70 83 82 70 84 81 66 85 102 119 122 130 134 141 145 146 145 132 150 191 153 145 150 132 129 130 122 113 109 108 105 106 108 104 104
134 142 142 132 128 136 143 137 131 133 133 130 127 128 126 128 126 112 107 100 100 100 102 114 113 114 119 117 107 103 96 94 92 102 100 104 97 90 87 88 85 93 98 104 80 36 26 59 67 77 58 71 82 81 73 114 114 97 108 121 130 130 135 143 138 123 119 117 197 166 156 160 157 137 130 126 117 106 108 109 110 108 102 103 104
137 123 118 112 128 139 131 131 136 136 132 126 124 121 133 130 115 114 109 100 108 112 112 123 122 124 119 121 116 110 107 109 108 100 105 106 99 91 90 90 95 96 92 99 80 60 58 69 78 76 82 81 72 65 84 101 134 125 116 122 133 133 136 137 116 113 130 156 194 162 159 174 171 128 128 124 110 105 114 114 111 108 107 106 101
79 110 102 114 136 139 138 139 139 141 137 136 126 128 122 118 127 124 118 130 125 123 132 137 125 120 120 115 117 125 131 132 118 110 116 100 103 105 106 102 97 86 89 75 92 58 69 79 83 70 71 55 83 60 89 102 111 118 116 126 129 129 129 115 115 131 158 170 152 151 150 180 80 124 124 117 114 114 114 116 118 117 111 108 107
84 55 125 138 141 141 146 147 151 148 139 134 131 124 124 129 123 125 132 138 125 130 136 136 125 117 109 119 132 129 129 129 129 136 125 113 109 110 106 108 99 89 79 60 82 110 94 87 69 78 70 81 89 103 87 85 89 89 113 126 135 135 127 116 133 154 158 111 105 152 165 110 124 134 136 128 120 113 116 118 122 123 116 110 105
75 143 143 139 147 148 160 164 162 153 138 135 131 128 131 125 127 136 137 127 133 132 134 128 123 125 118 121 127 132 137 139 140 131 124 115 115 105 105 110 106 96 77 82 90 107 107 82 64 63 65 50 41 24 44 71 78 83 97 123 142 144 132 141 152 149 113 104 118 143 158 104 153 139 140 137 126 125 121 118 125 124 121 121 113
244 191 158 162 162 163 167 170 158 149 139 141 135 137 141 139 133 133 123 129 138 133 130 128 132 125 136 139 131 133 132 137 137 130 117 120 113 109 104 100 101 106 120 128 124 120 112 92 73 73 73 44 9 6 32 33 61 73 94 118 127 120 124 133 119 102 101 103 89 77 107 129 161 152 146 125 129 140 128 133 129 128 129 125 118
205 212 180 168 171 174 172 172 159 151 150 145 141 141 147 136 124 127 127 131 138 131 137 141 137 140 148 148 138 134 135 133 132 125 127 125 117 111 113 119 119 117 160 147 125 109 109 99 81 73 67 50 31 30 42 48 41 38 53 77 85 88 104 93 88 89 87 92 92 73 78 110 130 127 131 126 131 148 145 133 133 135 136 133 127
198 198 187 177 175 173 172 169 156 155 159 151 144 142 138 128 137 137 127 129 135 139 139 147 141 145 149 149 138 134 134 136 133 133 131 125 125 128 131 129 125 139 147 133 120 111 102 98 79 75 67 57 52 37 43 53 46 37 43 46 45 63 62 79 92 89 91 88 75 83 64 86 96 121 136 135 133 89 89 147 145 139 140 138 133
196 193 179 177 157 147 157 157 156 161 161 142 137 139 137 135 142 136 129 125 134 133 134 138 143 141 143 137 130 126 127 129 132 119 118 123 131 138 145 143 133 136 131 124 118 119 112 105 104 92 73 61 60 44 55 54 49 50 49 53 60 61 67 79 85 89 98 97 81 83 86 97 107 108 137 142 131 126 75 131 147 138 144 142 141
60 102 153 134 124 137 147 147 154 159 153 139 139 137 134 136 140 134 130 129 129 129 128 133 132 126 120 119 121 122 119 122 119 126 118 123 132 144 149 146 132 130 127 125 123 118 117 117 127 110 85 73 71 60 68 70 66 59 54 59 64 68 71 82 95 109 111 94 83 70 59 41 48 91 114 109 139 143 99 123 148 153 150 157 147
68 109 117 126 143 144 147 141 143 145 141 138 132 133 134 133 133 134 124 129 128 128 132 133 130 115 112 120 122 120 122 122 121 124 127 137 144 150 148 135 130 118 122 131 133 127 124 114 118 127 121 91 87 68 70 75 70 66 60 63 68 75 82 91 111 121 124 103 85 76 29 61 47 355 77 128 146 127 118 105 138 160 154 165 134
93 114 129 144 139 139 142 141 144 141 138 126 124 124 129 130 127 114 121 127 128 126 131 132 132 126 124 133 134 134 135 134 133 135 136 142 141 133 131 133 128 131 140 137 131 144 125 111 94 102 84 116 94 87 74 76 75 69 64 63 64 76 87 99 110 121 119 100 85 71 84 68 57 33 65 83 102 90 94 71 111 143 147 106 145
114 113 135 144 137 129 130 143 135 135 135 134 134 133 127 119 113 115 119 119 122 123 128 133 135 138 141 141 144 143 147 142 138 137 131 142 138 130 124 126 131 135 136 130 133 132 108 112 104 90 84 100 100 97 90 83 79 78 71 67 63 66 82 113 127 115 109 106 73 61 53 81 114 111 65 73 83 91 79 76 70 67 74 98 188
128 127 134 137 132 128 129 148 134 134 131 131 127 118 109 100 100 108 113 115 111 112 124 127 133 141 151 145 147 150 151 148 145 143 136 135 123 115 120 138 138 139 136 133 137 127 92 93 117 102 71 72 107 104 106 94 86 81 76 72 64 62 63 70 82 89 91 112 90 64 55 40 62 57 53 59 72 82 85 75 81 81 62 64 67
132 137 138 140 137 137 134 137 137 134 130 124 123 119 116 117 115 112 109 114 113 111 115 128 133 141 148 147 151 155 158 153 151 144 132 132 125 126 124 141 139 133 130 130 139 152 134 104 111 115 99 82 81 109 112 102 85 79 76 66 61 61 57 55 77 94 89 72 62 59 55 34 61 63 65 71 77 74 72 74 70 72 70 65 76
128 139 140 138 139 142 141 146 139 136 134 131 131 129 127 121 113 120 119 125 126 120 120 127 134 148 149 148 155 160 154 148 144 135 131 130 121 131 141 140 143 141 147 166 165 147 129 122 109 91 112 111 96 115 121 112 102 78 73 70 60 51 55 51 49 52 62 68 71 73 71 66 58 63 68 66 71 75 76 75 80 80 75 80 73
142 143 143 138 137 140 146 143 138 137 137 138 134 128 132 133 129 132 133 132 137 138 133 137 142 146 149 152 155 154 149 141 132 121 122 131 142 145 157 160 153 140 125 137 150 140 131 131 131 99 57 126 128 157 161 108 57 127 118 90 71 62 61 63 64 54 53 57 67 74 90 85 73 53 55 70 76 70 68 75 76 73 73 72 75
141 143 138 134 136 142 145 145 143 138 136 133 132 127 115 111 122 137 139 111 76 115 125 140 140 142 148 151 151 142 137 124 120 124 132 146 156 154 163 158 148 144 141 147 149 152 153 149 154 142 123 77 115 182 190 117 137 131 104 103 69 84 55 64 49 50 65 61 69 81 91 92 88 87 69 59 56 66 70 73 75 77 69 63 64
150 144 145 147 146 141 145 144 143 132 129 129 120 115 112 101 94 113 103 105 133 114 105 116 126 131 131 138 121 124 122 119 127 138 146 153 158 163 152 157 150 158 158 156 160 165 157 139 131 146 139 127 131 183 228 202 146 142 110 81 139 117 104 74 62 39 44 52 62 76 71 74 92 94 76 74 64 54 49 60 70 69 63 59 61
163 163 157 156 151 145 143 144 138 132 128 128 124 122 113 102 107 96 97 91 84 103 112 97 113 124 115 111 115 108 114 131 142 150 155 163 165 155 163 163 153 159 159 157 166 184 188 155 152 149 168 154 160 153 229 201 167 45 144 119 88 77 184 126 96 45 30 46 47 63 69 76 78 74 76 82 85 84 86 73 71 73 64 42 56
166 168 159 147 139 141 140 138 130 130 130 131 134 132 132 134 133 129 130 122 125 137 145 150 141 141 144 112 97 117 130 136 139 149 157 157 165 170 158 150 154 159 168 170 166 160 187 191 188 167 169 188 158 144 140 321 145 101 145 139 163 161 155 145 110 107 49 40 47 65 85 80 78 82 78 79 96 101 104 106 103 88 84 75 54
166 155 155 147 134 140 145 143 139 135 134 138 139 130 128 143 150 152 150 152 142 148 117 128 133 128 118 122 128 114 139 143 143 146 148 148 145 147 151 160 165 173 168 151 172 189 195 203 174 164 171 156 137 155 168 152 106 20 359 213 141 112 145 139 133 129 109 50 47 69 77 70 68 76 78 83 89 82 80 77 73 77 82 84 59
156 157 158 149 142 147 151 146 139 140 139 140 140 143 141 147 132 128 137 140 145 146 147 136 120 127 120 133 127 120 105 128 142 141 143 137 133 141 153 151 146 162 162 171 176 178 158 211 200 170 145 167 172 161 166 164 166 182 46 77 86 96 84 90 132 145 128 127 106 69 70 84 80 76 85 77 59 58 67 67 74 75 77 71 68
158 165 161 143 130 133 139 135 137 134 135 141 140 144 144 146 137 132 123 111 117 123 122 118 125 129 124 127 120 113 94 81 108 141 144 144 144 146 146 142 137 135 131 129 132 152 162 160 166 171 175 164 171 154 146 175 148 163 118 66 85 87 79 60 99 90 134 133 104 117 115 73 68 63 65 64 61 51 49 55 61 71 77 80 86
147 139 108 124 122 125 135 135 133 136 141 139 140 142 142 136 133 138 129 121 113 104 110 126 135 141 123 117 111 104 100 88 78 109 125 118 119 122 121 120 123 123 110 128 126 119 133 154 170 183 170 151 136 151 169 168 162 149 143 145 119 108 85 83 72 108 74 49 133 139 118 121 99 57 52 46 50 46 45 42 57 62 70 87 82
126 130 132 135 132 134 138 132 132 135 141 142 143 147 147 150 144 143 137 132 127 125 122 118 120 116 118 118 117 102 83 95 100 99 119 115 109 111 118 117 112 109 110 109 115 120 104 98 96 103 121 136 127 119 104 132 140 136 145 156 160 164 161 164 170 162 134 130 116 112 113 95 97 82 36 42 44 46 53 57 62 63 69 70 51